Temp
-5 -5 -5 -5 -5 -5 -5 -5 -5 -5 -5 -5 -5 -5 -5 -5 -5 -5 -5 -5 -5 -5 -5 -5 -5 -5 -5 -5 -5 -5 -5 -5 -6 -6 -6 -6 -6 -6 -6 -7 -7 -7
-5 -5 -5 -5 -5 -5 -5 -5 -5 -5 -5 -5 -5 -5 -5 -5 -5 -5 -5 -5 -5 -5 -5 -5 -5 -5 -5 -5 -5 -5 -5 -5 -6 -6 -6 -6 -6 -6 -6 -6 -6 -7
-5 -5 -5 -5 -5 -5 -5 -5 -5 -5 -5 -5 -5 -5 -5 -5 -5 -5 -5 -5 -5 -5 -5 -5 -5 -5 -5 -6 -6 -6 -6 -5 -5 -6 -6 -6 -6 -6 -6 -6 -6 -6
-5 -5 -5 -5 -5 -5 -5 -5 -5 -5 -5 -5 -5 -5 -5 -5 -5 -5 -5 -5 -5 -5 -5 -5 -5 -5 -5 -5 -6 -6 -6 -6 -6 -6 -6 -6 -6 -6 -6 -6 -6 -6
-5 -5 -5 -5 -5 -5 -5 -5 -5 -5 -5 -5 -5 -5 -5 -5 -5 -5 -5 -5 -5 -5 -5 -5 -5 -5 -5 -5 -5 -6 -6 -6 -6 -6 -6 -6 -6 -6 -6 -6 -6 -6
-5 -5 -5 -5 -5 -5 -5 -5 -5 -5 -5 -5 -5 -5 -5 -5 -5 -5 -5 -5 -5 -5 -5 -5 -5 -5 -5 -5 -6 -6 -6 -6 -6 -6 -6 -6 -6 -6 -6 -6 -6 -6
-5 -5 -5 -5 -5 -5 -5 -5 -5 -5 -5 -5 -5 -5 -5 -5 -5 -5 -5 -5 -5 -5 -5 -5 -5 -6 -6 -6 -6 -6 -6 -6 -6 -6 -6 -6 -6 -6 -6 -6 -6 -6
-5 -5 -5 -5 -5 -5 -5 -5 -5 -5 -5 -5 -5 -5 -5 -5 -5 -5 -5 -5 -6 -6 -6 -6 -6 -6 -6 -6 -6 -6 -6 -6 -6 -6 -6 -6 -6 -6 -6 -6 -6 -6
-5 -5 -5 -5 -5 -5 -5 -5 -5 -5 -5 -5 -5 -5 -5 -5 -5 -5 -5 -6 -6 -6 -6 -6 -6 -6 -6 -6 -6 -6 -6 -6 -6 -6 -6 -6 -6 -7 -7 -7 -7 -6
-5 -5 -5 -5 -5 -5 -5 -5 -5 -5 -5 -5 -6 -6 -6 -6 -6 -6 -6 -6 -6 -6 -6 -6 -6 -6 -6 -6 -6 -6 -6 -6 -6 -6 -6 -7 -7 -7 -7 -7 -7 -7
-5 -5 -5 -5 -5 -5 -5 -5 -5 -6 -6 -6 -6 -6 -6 -6 -6 -6 -6 -6 -6 -6 -6 -6 -6 -6 -6 -6 -6 -6 -6 -7 -7 -7 -7 -7 -7 -7 -7 -7 -7 -7
-5 -5 -5 -5 -6 -6 -6 -6 -6 -6 -6 -6 -6 -6 -6 -6 -6 -6 -6 -6 -6 -6 -6 -6 -6 -6 -6 -7 -6 -6 -6 -7 -7 -7 -7 -7 -7 -7 -7 -7 -7 -7
-5 -5 -6 -6 -6 -6 -6 -6 -6 -6 -6 -6 -6 -6 -6 -6 -6 -6 -6 -6 -6 -6 -6 -6 -6 -7 -7 -7 -7 -7 -7 -7 -7 -7 -7 -7 -7 -7 -7 -7 -8 -8
-5 -6 -6 -6 -6 -6 -6 -6 -6 -6 -6 -6 -6 -6 -6 -6 -6 -6 -6 -6 -6 -6 -6 -7 -7 -7 -7 -7 -7 -7 -7 -7 -7 -7 -7 -7 -8 -8 -8 -8 -8 -8
-6 -6 -6 -6 -6 -6 -6 -6 -6 -6 -6 -6 -6 -6 -7 -7 -7 -7 -7 -7 -7 -7 -7 -7 -7 -7 -7 -7 -7 -7 -7 -7 -7 -7 -7 -8 -8 -8 -8 -8 -8 -8
-6 -6 -6 -6 -6 -6 -6 -6 -7 -7 -7 -7 -7 -7 -7 -7 -7 -7 -7 -7 -7 -7 -7 -7 -7 -7 -7 -7 -7 -7 -7 -7 -7 -7 -8 -8 -8 -8 -8 -8 -8 -8
-6 -6 -6 -6 -6 -7 -7 -7 -7 -7 -7 -7 -7 -7 -7 -7 -7 -7 -7 -7 -7 -7 -7 -7 -7 -7 -7 -7 -7 -7 -7 -7 -7 -8 -8 -8 -8 -8 -8 -8 -8 -8
-6 -7 -7 -7 -7 -7 -7 -7 -7 -7 -7 -7 -7 -7 -7 -7 -7 -7 -7 -7 -7 -8 -8 -8 -8 -8 -8 -8 -8 -8 -8 -8 -8 -8 -8 -8 -8 -8 -8 -8 -8 -8
-7 -7 -7 -7 -7 -7 -7 -7 -7 -7 -8 -8 -8 -8 -8 -8 -8 -8 -8 -8 -8 -8 -8 -8 -8 -8 -8 -8 -8 -8 -8 -8 -8 -8 -8 -8 -8 -8 -8 -8 -8 -8
-7 -7 -7 -7 -7 -7 -7 -8 -8 -8 -8 -8 -8 -8 -8 -8 -8 -8 -8 -8 -8 -8 -8 -8 -8 -8 -8 -8 -8 -8 -8 -8 -8 -8 -8 -8 -9 -9 -9 -9 -9 -9
-7 -7 -7 -7 -7 -7 -8 -8 -8 -8 -8 -8 -8 -8 -8 -8 -8 -8 -8 -8 -8 -8 -8 -8 -9 -9 -9 -9 -9 -9 -8 -8 -8 -8 -8 -8 -9 -9 -9 -9 -9 -9
-7 -7 -7 -7 -7 -8 -8 -8 -8 -8 -8 -8 -8 -8 -8 -8 -8 -8 -8 -8 -8 -8 -8 -9 -9 -9 -9 -9 -9 -9 -9 -9 -9 -9 -9 -9 -9 -9 -9 -9 -9 -9
-7 -7 -7 -8 -8 -8 -8 -8 -8 -8 -8 -8 -8 -8 -8 -8 -8 -8 -9 -9 -9 -9 -9 -9 -9 -9 -9 -9 -9 -9 -9 -9 -9 -9 -9 -9 -9 -9 -9 -9 -9 -9
-7 -8 -8 -8 -8 -8 -8 -8 -8 -8 -8 -8 -8 -8 -8 -9 -9 -9 -9 -9 -9 -9 -9 -9 -9 -9 -9 -9 -9 -9 -9 -9 -9 -9 -9 -9 -9 -9 -9 -9 -9 -9
-8 -8 -8 -8 -8 -8 -8 -8 -8 -9 -9 -9 -9 -9 -9 -9 -9 -9 -9 -9 -9 -9 -9 -9 -9 -9 -9 -9 -9 -9 -9 -9 -9 -9 -9 -9 -9 -9 -9 -9 -10 -10
-8 -8 -8 -8 -8 -8 -9 -9 -9 -9 -9 -9 -9 -9 -9 -9 -9 -9 -9 -9 -9 -9 -9 -9 -9 -9 -9 -9 -9 -9 -9 -9 -9 -9 -9 -9 -9 -10 -10 -10 -10 -10
Height
5897 5896 5896 5896 5895 5895 5894 5894 5893 5892 5892 5891 5891 5890 5889 5889 5888 5887 5886 5885 5884 5883 5882 5881 5880 5880 5879 5878 5876 5876 5875 5874 5873 5873 5873 5872 5872 5871 5871 5872 5872 5873
5895 5895 5895 5894 5894 5893 5893 5892 5891 5891 5890 5889 5889 5888 5888 5887 5886 5885 5884 5883 5882 5881 5880 5879 5878 5878 5877 5876 5875 5874 5873 5872 5871 5870 5870 5869 5869 5869 5869 5869 5869 5870
5894 5894 5893 5893 5892 5892 5891 5891 5890 5889 5888 5888 5887 5886 5885 5885 5884 5883 5882 5881 5880 5879 5878 5877 5876 5875 5875 5874 5873 5872 5871 5871 5870 5868 5867 5867 5867 5867 5867 5866 5866 5866
5893 5892 5892 5891 5890 5890 5889 5889 5888 5887 5886 5886 5885 5884 5883 5882 5882 5881 5880 5879 5878 5877 5876 5875 5874 5873 5872 5871 5870 5869 5868 5868 5868 5867 5866 5865 5864 5864 5864 5863 5863 5863
5891 5890 5890 5889 5888 5888 5887 5886 5885 5885 5884 5883 5882 5881 5881 5880 5879 5878 5877 5877 5876 5875 5874 5873 5872 5871 5870 5869 5868 5866 5865 5865 5865 5865 5864 5863 5862 5861 5860 5860 5860 5859
5889 5888 5888 5887 5886 5885 5885 5884 5883 5882 5881 5880 5879 5879 5878 5877 5876 5875 5874 5874 5873 5872 5871 5870 5869 5868 5868 5867 5865 5864 5863 5862 5861 5861 5861 5860 5860 5859 5857 5856 5856 5856
5887 5886 5886 5885 5884 5883 5882 5882 5881 5880 5879 5878 5877 5876 5875 5874 5873 5872 5871 5870 5869 5868 5867 5866 5866 5865 5864 5863 5862 5861 5860 5859 5858 5857 5857 5856 5856 5856 5855 5853 5852 5852
5885 5884 5883 5883 5882 5881 5880 5879 5878 5877 5876 5875 5874 5873 5872 5871 5870 5869 5868 5867 5865 5864 5863 5863 5862 5861 5860 5859 5858 5857 5856 5855 5855 5854 5853 5853 5852 5852 5851 5851 5850 5848
5882 5881 5881 5880 5879 5878 5877 5876 5875 5874 5873 5872 5871 5869 5868 5867 5866 5865 5864 5863 5862 5861 5860 5859 5858 5857 5856 5855 5854 5853 5852 5851 5850 5850 5850 5849 5848 5847 5847 5847 5846 5845
5879 5879 5878 5877 5876 5875 5874 5873 5872 5871 5870 5868 5867 5866 5865 5863 5862 5861 5860 5859 5858 5857 5856 5855 5854 5853 5852 5851 5850 5849 5848 5847 5846 5845 5845 5845 5844 5844 5843 5842 5842 5842
5876 5875 5875 5874 5873 5872 5871 5869 5868 5867 5866 5864 5863 5862 5861 5859 5858 5857 5856 5855 5854 5853 5851 5850 5849 5848 5847 5846 5845 5844 5843 5842 5841 5840 5840 5840 5839 5839 5839 5838 5838 5837
5873 5872 5871 5870 5869 5867 5866 5865 5864 5862 5861 5860 5859 5858 5856 5855 5854 5852 5851 5850 5849 5848 5847 5845 5844 5843 5842 5841 5840 5840 5839 5838 5837 5836 5835 5835 5834 5834 5834 5833 5833 5833
5870 5868 5867 5866 5864 5863 5861 5860 5859 5858 5856 5855 5854 5853 5851 5850 5849 5847 5846 5845 5844 5843 5842 5840 5839 5838 5837 5836 5835 5835 5834 5833 5833 5832 5831 5830 5829 5829 5828 5828 5828 5828
5865 5864 5863 5861 5860 5858 5857 5855 5854 5852 5851 5850 5848 5847 5846 5845 5844 5842 5841 5840 5839 5837 5836 5835 5834 5833 5832 5831 5830 5829 5829 5828 5828 5827 5826 5825 5825 5824 5823 5823 5823 5823
5861 5860 5858 5857 5855 5854 5852 5851 5849 5848 5846 5845 5843 5842 5841 5839 5838 5837 5836 5834 5833 5832 5831 5830 5829 5828 5827 5826 5825 5824 5823 5823 5822 5821 5821 5820 5819 5819 5818 5818 5817 5817
5856 5855 5854 5852 5851 5849 5847 5846 5844 5842 5841 5839 5838 5837 5835 5834 5833 5831 5830 5829 5828 5826 5825 5824 5823 5822 5821 5820 5819 5818 5818 5817 5816 5816 5815 5815 5814 5813 5813 5812 5812 5812
5852 5850 5849 5847 5846 5844 5842 5840 5839 5837 5835 5834 5832 5831 5830 5828 5827 5826 5824 5823 5822 5820 5819 5818 5817 5815 5814 5814 5813 5812 5811 5811 5811 5810 5809 5809 5808 5808 5807 5806 5806 5806
5847 5845 5843 5842 5840 5839 5837 5835 5834 5832 5830 5829 5827 5826 5824 5823 5821 5820 5818 5817 5816 5815 5813 5812 5810 5809 5808 5807 5807 5806 5805 5805 5805 5804 5804 5803 5802 5802 5801 5800 5800 5799
5842 5840 5838 5837 5835 5834 5832 5830 5829 5827 5825 5824 5822 5820 5819 5817 5815 5814 5812 5811 5810 5809 5807 5806 5804 5803 5802 5801 5800 5799 5799 5799 5798 5798 5798 5797 5796 5795 5795 5794 5794 5793
5838 5836 5834 5832 5831 5829 5827 5826 5824 5822 5820 5819 5817 5815 5813 5811 5810 5808 5807 5805 5804 5803 5801 5800 5798 5797 5796 5795 5794 5793 5792 5792 5792 5791 5791 5790 5789 5789 5788 5788 5787 5787
5834 5832 5830 5828 5826 5824 5822 5821 5819 5817 5815 5813 5812 5810 5808 5806 5804 5803 5801 5799 5798 5796 5795 5793 5792 5790 5789 5788 5787 5786 5785 5785 5784 5784 5783 5783 5782 5782 5781 5781 5780 5780
5829 5827 5825 5823 5821 5819 5817 5815 5813 5811 5809 5808 5806 5804 5802 5800 5799 5797 5795 5793 5792 5790 5789 5787 5785 5784 5783 5782 5780 5779 5778 5778 5777 5776 5776 5775 5775 5774 5773 5773 5773 5773
5824 5822 5820 5818 5816 5814 5812 5810 5808 5806 5804 5802 5801 5799 5797 5795 5793 5791 5789 5788 5786 5784 5782 5781 5779 5777 5775 5774 5773 5772 5771 5770 5770 5769 5769 5768 5767 5766 5766 5766 5766 5765
5819 5817 5815 5813 5811 5809 5807 5804 5802 5801 5799 5797 5795 5793 5792 5789 5787 5786 5784 5781 5779 5778 5776 5774 5772 5770 5768 5766 5765 5764 5763 5762 5762 5761 5761 5760 5759 5758 5758 5758 5758 5758
5814 5812 5810 5808 5806 5804 5801 5799 5797 5796 5793 5791 5790 5788 5786 5784 5782 5780 5778 5775 5773 5771 5769 5767 5765 5763 5760 5759 5757 5756 5755 5754 5753 5753 5752 5752 5751 5750 5750 5750 5750 5749
5809 5807 5805 5803 5801 5799 5796 5794 5792 5790 5788 5786 5784 5782 5780 5778 5775 5773 5771 5769 5766 5763 5761 5759 5758 5756 5754 5752 5750 5748 5747 5745 5745 5744 5744 5743 5743 5742 5742 5742 5741 5741
Wind_Speed
5 6 7 7 8 8 9 10 10 11 11 12 12 12 12 13 14 14 14 15 15 15 15 15 15 15 16 16 17 18 18 19 19 18 18 18 18 19 20 20 21 22
7 8 9 9 10 11 11 12 12 13 13 14 14 14 14 15 15 16 16 17 17 17 17 18 17 17 17 16 17 18 18 19 20 20 21 20 19 20 19 20 22 23
10 11 11 12 12 13 14 14 15 15 15 15 16 16 16 17 17 18 18 18 19 19 19 19 20 19 19 18 18 18 18 18 19 21 22 22 21 21 19 20 22 23
12 13 14 14 15 16 16 17 17 17 18 18 18 18 18 19 19 19 19 20 20 20 20 21 21 21 21 21 21 20 20 19 19 20 22 23 23 22 22 21 22 23
14 15 15 16 17 18 18 19 19 20 20 21 21 21 21 21 21 21 21 21 22 22 22 22 22 22 22 22 23 23 23 22 21 21 21 22 23 24 25 24 23 23
15 16 17 18 19 20 20 21 22 22 22 23 23 23 24 24 24 24 24 24 24 24 24 24 24 24 24 24 24 24 24 25 24 24 22 22 22 23 25 26 25 24
17 18 19 20 21 22 23 23 24 24 25 25 25 25 25 26 26 26 26 26 26 26 26 26 26 26 26 26 26 25 25 25 26 26 25 25 24 23 24 26 27 27
19 20 21 22 23 24 25 25 26 26 27 27 27 27 27 28 28 28 28 28 28 28 29 28 28 29 29 28 28 28 27 27 26 26 26 26 26 25 24 24 25 27
21 22 23 23 25 26 27 28 28 29 29 29 29 29 30 30 30 30 30 30 30 30 31 31 31 31 31 30 31 30 30 29 28 27 27 27 27 27 27 26 25 25
23 24 24 25 27 28 29 30 30 31 31 31 31 31 32 32 31 31 31 31 32 32 32 32 32 32 32 32 32 32 32 32 31 30 29 28 28 28 28 28 26 25
26 26 27 28 29 31 31 32 32 33 33 33 33 33 33 33 33 33 33 33 33 33 34 34 33 33 33 33 33 33 33 33 33 33 32 31 30 29 29 29 28 27
28 29 30 31 32 33 33 34 34 34 35 34 34 34 34 34 34 35 35 35 35 35 35 35 35 35 35 35 35 35 34 34 35 34 34 33 32 31 30 30 29 29
31 32 32 33 34 34 35 35 35 36 36 36 36 36 36 36 36 36 37 37 37 37 37 37 37 37 37 36 36 36 36 35 35 35 35 34 33 33 32 32 31 30
34 33 33 34 35 35 35 36 36 36 37 37 37 37 37 37 38 38 38 38 38 38 38 38 38 38 38 38 38 37 37 37 37 36 36 35 34 34 34 33 33 32
34 34 34 35 35 36 36 37 37 37 38 38 38 39 39 39 39 40 40 40 40 40 39 39 39 39 39 39 39 38 38 38 38 38 37 37 36 35 35 35 35 34
34 35 35 36 37 37 38 38 38 39 39 39 40 40 40 40 41 41 41 41 41 40 40 40 40 40 40 40 40 39 39 39 39 39 38 38 37 37 37 37 36 36
36 36 37 38 38 38 38 39 39 40 40 40 41 41 41 41 41 41 41 41 40 40 40 40 40 40 40 41 41 40 40 40 39 39 39 39 39 39 39 39 39 38
37 38 39 39 39 39 39 40 40 40 40 41 41 41 41 41 41 41 40 40 40 40 40 40 40 41 41 41 41 41 41 40 40 39 40 40 40 40 40 40 40 40
38 39 40 40 41 41 41 41 41 40 40 40 40 40 40 40 40 40 40 40 39 39 40 40 41 41 41 41 41 41 41 41 40 40 40 41 41 41 41 41 42 42
39 40 40 41 41 41 41 41 41 40 40 40 39 39 39 39 39 39 39 40 40 40 40 40 41 41 41 42 42 42 42 42 42 42 42 43 43 43 42 42 42 42
40 40 41 41 42 41 41 41 41 40 40 39 39 39 39 39 39 39 39 40 40 40 40 40 41 41 42 42 43 43 43 44 44 44 44 44 43 43 43 43 43 43
41 41 41 42 42 41 41 41 40 40 39 39 38 38 38 39 39 39 39 40 40 41 41 41 42 42 43 43 44 44 44 44 44 44 44 44 44 44 44 44 43 44
41 41 41 41 40 40 40 39 39 39 39 38 38 38 38 39 39 39 40 40 41 41 41 42 42 44 44 44 45 45 46 46 46 45 45 45 45 45 46 45 45 44
41 40 40 39 39 38 38 38 39 39 39 39 38 38 39 39 39 40 40 41 42 42 43 43 44 45 46 46 47 47 47 47 47 47 46 46 46 46 46 46 46 45
39 39 39 38 38 38 38 38 38 38 38 39 39 39 39 40 40 41 41 42 43 44 44 44 45 45 46 47 47 48 48 48 48 48 47 47 47 47 47 47 46 46
38 38 38 38 38 38 38 38 38 38 38 39 39 40 40 41 41 42 42 43 43 44 44 44 45 45 46 47 48 48 49 49 49 49 49 49 48 48 48 48 48 48
Wind_Direction
306 310 312 314 314 315 317 318 320 321 322 323 323 324 323 322 322 322 323 323 323 322 320 319 319 318 318 316 314 312 311 309 308 305 297 291 287 281 276 274 271 268
302 303 304 306 307 310 311 313 314 315 316 317 318 318 318 318 318 317 318 319 319 318 317 316 315 314 312 311 309 308 308 308 307 304 301 299 295 290 284 277 271 268
300 300 301 303 304 306 306 307 308 309 309 310 311 312 312 312 313 313 313 313 314 314 314 313 312 312 310 308 305 303 303 303 303 302 301 301 298 295 290 282 275 271
298 300 301 302 303 304 304 304 305 305 305 305 306 306 307 307 307 308 308 308 308 308 308 308 308 308 308 307 305 302 300 299 298 298 298 298 298 296 291 285 280 276
296 298 299 299 300 300 301 301 302 302 302 303 303 304 304 303 303 304 303 303 303 303 302 303 303 303 304 304 303 302 301 299 297 295 294 294 294 294 292 289 285 280
293 294 295 296 297 298 298 299 299 300 300 300 300 301 301 301 301 301 300 300 300 300 299 300 299 299 299 299 299 299 299 298 298 296 294 291 290 290 291 291 289 285
289 291 293 294 296 297 297 298 298 298 298 298 298 298 297 297 297 297 297 297 297 297 297 297 297 297 297 296 296 295 295 295 295 296 295 293 290 288 287 288 289 288
287 289 291 293 295 296 296 296 296 296 296 296 296 295 295 295 295 295 295 295 295 295 295 295 295 295 295 295 294 293 292 292 292 292 293 292 291 289 286 285 286 287
286 288 291 293 295 295 296 296 295 295 295 294 294 294 294 294 294 294 294 293 293 292 292 292 292 292 292 292 292 291 291 291 291 291 290 289 288 288 287 285 283 283
285 287 291 294 296 296 296 295 295 294 294 293 292 292 292 291 291 291 290 290 289 289 288 288 288 288 288 289 289 289 289 289 290 290 289 288 287 285 285 284 283 281
285 289 292 294 296 296 296 295 295 294 293 292 291 290 290 290 289 289 289 288 288 287 287 286 286 286 286 286 287 287 286 287 287 288 289 288 287 285 283 282 281 280
286 289 292 294 296 296 296 296 295 294 293 291 290 290 289 289 289 289 288 288 287 287 286 286 286 286 285 285 285 285 284 284 283 284 285 286 286 285 283 281 279 278
287 290 293 295 296 297 297 296 295 294 293 292 291 291 290 289 289 288 288 287 287 286 285 285 285 285 284 284 284 284 283 282 281 280 281 282 283 283 282 281 279 277
289 293 295 297 297 297 296 295 294 293 293 293 292 291 290 289 288 288 287 286 286 285 285 284 283 283 283 283 283 283 283 282 280 278 278 279 280 280 280 279 279 277
293 295 297 298 297 296 295 294 293 293 292 292 292 291 290 289 288 288 287 286 286 285 284 283 282 282 281 281 281 282 282 281 279 277 276 277 277 278 278 277 276 275
296 297 297 297 296 294 294 294 293 293 293 293 292 291 290 289 289 288 287 286 285 284 283 282 282 281 281 281 281 281 281 280 278 276 275 275 276 277 277 276 274 273
297 297 297 296 295 294 294 294 294 294 294 293 292 292 291 289 288 287 286 285 284 284 283 282 282 282 281 281 281 280 280 279 277 275 274 274 274 275 275 275 274 272
297 297 296 295 295 295 295 296 296 295 295 294 292 291 290 289 288 287 286 285 284 284 283 283 282 282 281 281 281 280 279 278 276 274 273 273 273 273 274 273 272 271
297 297 296 296 296 297 297 296 296 294 293 292 291 290 289 288 287 286 286 285 285 284 283 283 282 282 282 281 280 280 279 277 276 274 273 273 273 273 272 271 270 269
297 296 296 297 297 297 296 295 294 293 292 291 290 289 289 288 288 287 287 286 285 285 284 284 283 282 282 281 280 279 278 277 276 275 274 273 273 272 271 270 269 268
296 296 296 297 296 296 295 294 293 293 292 291 291 290 290 289 289 289 288 287 287 286 285 284 283 282 281 280 280 279 278 277 276 275 275 274 273 272 270 269 268 267
297 297 297 297 296 296 295 294 294 293 293 292 292 291 291 290 290 289 289 288 287 286 285 285 284 283 282 281 280 279 278 277 276 276 275 274 274 272 271 269 268 267
296 297 297 297 297 297 296 296 295 294 294 293 293 293 292 291 291 290 290 289 288 287 287 286 285 284 283 282 281 280 279 278 277 277 276 274 273 272 271 270 269 267
297 298 299 299 298 298 297 297 296 296 296 295 295 294 293 293 292 292 291 290 289 288 288 287 286 285 284 283 282 281 280 279 278 277 276 275 273 272 271 270 269 267
300 300 300 300 299 299 298 298 297 297 297 296 295 295 294 293 292 292 291 291 290 289 288 287 286 285 285 284 283 282 281 280 278 277 276 274 273 272 271 270 268 267
301 301 300 300 299 299 299 298 298 297 297 296 295 295 294 293 293 292 292 292 291 290 289 288 287 286 285 285 284 283 282 280 279 278 276 275 273 272 271 270 268 267